Regional Weather Roundup
Issued by NWS

Home | Current Version | Previous Version | Text Only | Print | Product List | Glossary On
Versions: 1 2 3 4 5 6 7 8 9 10 11 12 13 14 15 16 17 18 19 20 21 22 23 24 25 26 27 28
000
ASPQ40 PGUM 231912
RWRPQ
WEATHER ROUNDUP FOR THE MARIANAS AND MICRONESIA
NATIONAL WEATHER SERVICE TIYAN GU
500 AM CHST TUE JAN 24 2017

GUZ001>004-232000-
MARIANA ISLANDS-

CITY           SKY/WX    TMP DP  RH WIND       PRES   REMARKS
GUAM AIRPORT   PTCLDY    77  75  94 NE10      29.96R
ANDERSEN AFB   MOCLDY    77  72  83 NE18      29.97R
ROTA AIRPORT   NOT AVBL
TINIAN AP      NOT AVBL
SAIPAN AP      CLOUDY    77  70  78 N13       29.97R

$$

PMZ161-232000-
REPUBLIC OF PALAU-

CITY           SKY/WX    TMP DP  RH WIND       PRES   REMARKS
KOROR AP       NOT AVBL
KOROR WSO      MOCLDY    79  77  94 E6        29.84F

$$

PMZ171>174-232000-
FEDERATED STATES OF MICRONESIA-

CITY           SKY/WX    TMP DP  RH WIND       PRES   REMARKS
YAP AIRPORT    MOCLDY    79  75  89 NE14      29.84S
CHUUK AP       LGT RAIN  77  75  94 E8        29.79S
POHNPEI AP     NOT AVBL
POHNPEI WSO    CLOUDY    82  73  74 NE13      29.83R
KOSRAE AP      NOT AVBL

$$

PMZ181-232000-
REPUBLIC OF THE MARSHALL ISLANDS-

CITY           SKY/WX    TMP DP  RH WIND       PRES   REMARKS
KWAJALEIN AP   PTCLDY    82  75  78 E24       29.82R
MAJURO AP      NOT AVBL
MAJURO WSO     MOCLDY    81  77  89 NE13      29.80R

$$





USA.gov is the U.S. government's official web portal to all federal, state and local government web resources and services.